Weather History for Fort Leonard Wood, MO

Change the Weather History Date:

Thursday, October 4, 2012

  Actual Average Record
Temperature  
Mean Temperature 68 °F -  
Max Temperature 79 °F 70 °F 89 °F (2000)
Min Temperature 54 °F 51 °F 32 °F (2010)
Cooling Degree Days 2    
Growing Degree Days 18 (Base 50)    
Moisture  
Dew Point 56 °F    
Average Humidity 70    
Maximum Humidity 88    
Minimum Humidity 48    
Precipitation  
Precipitation 0.00 in - - ()
Sea Level Pressure  
Sea Level Pressure 30.11 in    
Wind  
Wind Speed 7 mph (WSW)    
Max Wind Speed 12 mph    
Max Gust Speed -    
Visibility 10 miles    
Events      
Averages and records for this station are not official NWS values.
T = Trace of Precipitation, MM = Missing Value Source: NWS Daily Summary

Daily Weather History Graph

Daily Weather History Graph

Search for Another Location

Airport:

Trip Planner

Search our weather history database for the weather conditions in past years. The results will help you decide how hot, cold, wet, or windy it might be!

Date:

Astronomy

Oct. 04, 2012 Rise Set
Actual Time 7:07 AM CDT 6:46 PM CDT
Civil Twilight 6:41 AM CDT 7:12 PM CDT
Nautical Twilight 6:10 AM CDT 7:42 PM CDT
Astronomical Twilight 5:40 AM CDT 8:13 PM CDT
Moon 9:27 PM CDT (10/4) 11:19 AM CDT (10/4)
Length of Visible Light 12h 31m
Length of Day
11h 39m
Waning Gibbous, 82% of the Moon is Illuminated
Oct 4
Waning Gibbous
Oct 8
Last Quarter
Oct 15
New
Oct 21
First Quarter
Oct 29
Full

Hourly Weather History & Observations

Time (CDT) Temp. Dew Point Humidity Pressure Visibility Wind Dir Wind Speed Gust Speed Precip Events Conditions
12:55 AM 62.4 °F 56.7 °F 81% 30.04 in 10.0 mi Variable 6.9 mph - N/A   Clear
1:55 AM 61.9 °F 56.5 °F 82% 30.06 in 10.0 mi South 5.8 mph - N/A   Clear
2:55 AM 61.2 °F 56.1 °F 83% 30.07 in 10.0 mi Variable 5.8 mph - N/A   Mostly Cloudy
3:55 AM 60.3 °F 55.8 °F 85% 30.07 in 10.0 mi South 5.8 mph - N/A   Clear
4:55 AM 59.2 °F 55.4 °F 87% 30.08 in 10.0 mi South 5.8 mph - N/A   Clear
5:55 AM 58.6 °F 55.2 °F 88% 30.10 in 10.0 mi South 4.6 mph - N/A   Clear
6:55 AM 59.4 °F 55.2 °F 86% 30.12 in 10.0 mi Variable 5.8 mph - N/A   Clear
7:55 AM 61.3 °F 55.8 °F 82% 30.14 in 10.0 mi Variable 5.8 mph - N/A   Clear
8:55 AM 65.5 °F 56.8 °F 74% 30.14 in 10.0 mi SSW 5.8 mph - N/A   Clear
9:55 AM 68.7 °F 57.6 °F 67% 30.14 in 10.0 mi SSW 6.9 mph - N/A   Overcast
10:55 AM 74.1 °F 57.4 °F 56% 30.14 in 10.0 mi SSW 8.1 mph - N/A   Partly Cloudy
11:55 AM 78.3 °F 57.0 °F 48% 30.13 in 10.0 mi SW 11.5 mph - N/A   Overcast
12:55 PM 79.0 °F 58.1 °F 49% 30.12 in 10.0 mi SSW 9.2 mph - N/A   Overcast
1:55 PM 78.4 °F 57.6 °F 49% 30.10 in 10.0 mi Variable 5.8 mph - N/A   Mostly Cloudy
2:55 PM 78.4 °F 58.5 °F 50% 30.09 in 10.0 mi Variable 4.6 mph - N/A   Overcast
3:55 PM 78.4 °F 57.7 °F 49% 30.08 in 10.0 mi SW 5.8 mph - N/A   Overcast
4:55 PM 77.9 °F 57.9 °F 50% 30.08 in 10.0 mi SSW 3.5 mph - N/A   Overcast
5:55 PM 72.5 °F 59.7 °F 64% 30.10 in 10.0 mi NNW 10.4 mph - N/A   Overcast
6:55 PM 69.8 °F 59.9 °F 71% 30.12 in 10.0 mi NNW 11.5 mph - N/A   Overcast
7:55 PM 63.7 °F 55.8 °F 75% 30.14 in 10.0 mi NNW 5.8 mph - N/A   Mostly Cloudy
8:55 PM 63.7 °F 54.3 °F 72% 30.14 in 10.0 mi NNW 5.8 mph - N/A   Overcast
9:55 PM 59.7 °F 53.1 °F 79% 30.15 in 10.0 mi NNW 6.9 mph - N/A   Clear
10:55 PM 56.7 °F 50.2 °F 79% 30.15 in 10.0 mi North 6.9 mph - N/A   Clear
11:55 PM 54.7 °F 48.7 °F 80% 30.15 in 10.0 mi North 9.2 mph - N/A   Clear